When you browse on this site, cookies collect data to enhance your experience and personalize the content and advertising you see.
Visit our Privacy Policy to learn more. By continuing to use the site, you agree to this use of cookies and data.

Tiempo cada hora Poltevo

Hoy, 26 Septiembre, Sábado

Tiempo Temperatura Precipitaciones Viento Presión Humedad
00:00 +13°C° 0 mm 4 mps 741 mmHg 65%
01:00 +13°C° 0 mm 4 mps 741 mmHg 66%
02:00 +12°C° 0 mm 4 mps 741 mmHg 68%
03:00 +12°C° 0 mm 4 mps 741 mmHg 68%
04:00 +12°C° 0 mm 4 mps 741 mmHg 69%
05:00 +11°C° 0 mm 4 mps 741 mmHg 69%
06:00 +13°C° 0 mm 5 mps 741 mmHg 67%
07:00 +14°C° 0 mm 5 mps 741 mmHg 65%
08:00 +15°C° 0 mm 5 mps 741 mmHg 63%
09:00 +16°C° 0 mm 6 mps 742 mmHg 58%
10:00 +19°C° 0 mm 6 mps 742 mmHg 53%
11:00 +21°C° 0 mm 6 mps 742 mmHg 47%
12:00 +21°C° 0 mm 6 mps 742 mmHg 46%
13:00 +22°C° 0 mm 6 mps 742 mmHg 45%
14:00 +22°C° 0 mm 6 mps 742 mmHg 44%
15:00 +21°C° 0 mm 6 mps 742 mmHg 49%
16:00 +19°C° 0 mm 5 mps 742 mmHg 54%
17:00 +18°C° 0 mm 4 mps 741 mmHg 59%
18:00 +17°C° 0 mm 4 mps 742 mmHg 58%
19:00 +17°C° 0 mm 4 mps 742 mmHg 57%
20:00 +15°C° 0 mm 4 mps 742 mmHg 56%
21:00 +15°C° 0 mm 5 mps 742 mmHg 53%
22:00 +16°C° 0 mm 5 mps 742 mmHg 50%
23:00 +16°C° 0 mm 5 mps 742 mmHg 47%

Mañana, 27 Septiembre, Domingo

Tiempo Temperatura Precipitaciones Viento Presión Humedad
00:00 +16°C° 0 mm 6 mps 742 mmHg 45%
01:00 +16°C° 0 mm 6 mps 742 mmHg 43%
02:00 +16°C° 0 mm 6 mps 743 mmHg 42%
03:00 +15°C° 0 mm 6 mps 743 mmHg 42%
04:00 +14°C° 0 mm 6 mps 743 mmHg 42%
05:00 +13°C° 0 mm 6 mps 743 mmHg 42%
06:00 +13°C° 0 mm 6 mps 743 mmHg 44%
07:00 +14°C° 0 mm 7 mps 743 mmHg 46%
08:00 +14°C° 0 mm 7 mps 744 mmHg 48%
09:00 +14°C° 0 mm 7 mps 744 mmHg 46%
10:00 +15°C° 0 mm 7 mps 744 mmHg 44%
11:00 +16°C° 0 mm 7 mps 743 mmHg 42%
12:00 +17°C° 0 mm 7 mps 743 mmHg 42%
13:00 +18°C° 0 mm 8 mps 743 mmHg 42%
14:00 +18°C° 0 mm 8 mps 743 mmHg 41%
15:00 +18°C° 0 mm 7 mps 743 mmHg 43%
16:00 +17°C° 0 mm 6 mps 743 mmHg 44%
17:00 +16°C° 0 mm 6 mps 743 mmHg 46%
18:00 +16°C° 0 mm 6 mps 743 mmHg 44%
19:00 +16°C° 0 mm 6 mps 743 mmHg 42%
20:00 +16°C° 0 mm 6 mps 743 mmHg 39%
21:00 +16°C° 0 mm 6 mps 743 mmHg 39%
22:00 +16°C° 0 mm 6 mps 744 mmHg 39%
23:00 +16°C° 0 mm 6 mps 744 mmHg 39%

Pasado mañana, 28 Septiembre, Lunes

Tiempo Temperatura Precipitaciones Viento Presión Humedad
00:00 +15°C° 0.1 mm 6 mps 744 mmHg 41%
01:00 +15°C° 0.1 mm 5 mps 744 mmHg 43%
02:00 +14°C° 0.1 mm 5 mps 744 mmHg 45%
03:00 +13°C° 0.7 mm 6 mps 744 mmHg 59%
04:00 +11°C° 0.7 mm 6 mps 744 mmHg 72%
05:00 +9°C° 0.7 mm 7 mps 744 mmHg 85%
06:00 +10°C° 0.5 mm 7 mps 744 mmHg 84%
07:00 +10°C° 0.5 mm 6 mps 744 mmHg 84%
08:00 +10°C° 0.5 mm 6 mps 744 mmHg 83%
09:00 +11°C° 0.3 mm 6 mps 744 mmHg 81%
10:00 +13°C° 0.3 mm 6 mps 744 mmHg 79%
11:00 +14°C° 0.3 mm 6 mps 745 mmHg 77%
12:00 +15°C° 0 mm 5 mps 745 mmHg 74%
13:00 +16°C° 0 mm 5 mps 745 mmHg 71%
14:00 +16°C° 0 mm 5 mps 745 mmHg 68%
15:00 +17°C° 0 mm 4 mps 745 mmHg 71%
16:00 +15°C° 0 mm 4 mps 745 mmHg 74%
17:00 +14°C° 0 mm 3 mps 745 mmHg 77%
18:00 +13°C° 0 mm 3 mps 745 mmHg 77%
19:00 +13°C° 0 mm 4 mps 745 mmHg 76%
20:00 +13°C° 0 mm 4 mps 745 mmHg 76%
21:00 +12°C° 0 mm 4 mps 745 mmHg 74%
22:00 +12°C° 0 mm 3 mps 745 mmHg 72%
23:00 +12°C° 0 mm 3 mps 745 mmHg 70%

29 Septiembre, Martes

Tiempo Temperatura Precipitaciones Viento Presión Humedad
00:00 +12°C° 0 mm 3 mps 745 mmHg 67%
01:00 +11°C° 0 mm 3 mps 745 mmHg 63%
02:00 +11°C° 0 mm 3 mps 745 mmHg 59%
03:00 +12°C° 0 mm 4 mps 745 mmHg 57%
04:00 +12°C° 0 mm 4 mps 745 mmHg 55%
05:00 +12°C° 0 mm 4 mps 745 mmHg 53%
06:00 +12°C° 0 mm 5 mps 745 mmHg 54%
07:00 +13°C° 0 mm 5 mps 745 mmHg 54%
08:00 +13°C° 0 mm 6 mps 744 mmHg 54%
09:00 +14°C° 0 mm 6 mps 744 mmHg 52%
10:00 +15°C° 0 mm 6 mps 744 mmHg 50%
11:00 +16°C° 0 mm 7 mps 744 mmHg 49%
12:00 +16°C° 0 mm 7 mps 744 mmHg 48%
13:00 +16°C° 0 mm 7 mps 743 mmHg 48%
14:00 +16°C° 0 mm 7 mps 743 mmHg 48%
15:00 +15°C° 0.2 mm 7 mps 743 mmHg 53%
16:00 +14°C° 0.2 mm 7 mps 743 mmHg 58%
17:00 +11°C° 0.2 mm 6 mps 743 mmHg 63%
18:00 +11°C° 0.2 mm 6 mps 743 mmHg 66%
19:00 +11°C° 0.2 mm 6 mps 743 mmHg 69%
20:00 +11°C° 0.2 mm 6 mps 743 mmHg 72%
21:00 +12°C° 0.1 mm 5 mps 742 mmHg 70%
22:00 +12°C° 0.1 mm 5 mps 742 mmHg 68%
23:00 +12°C° 0.1 mm 4 mps 742 mmHg 67%

30 Septiembre, Miércoles

Tiempo Temperatura Precipitaciones Viento Presión Humedad
00:00 +12°C° 0.1 mm 4 mps 742 mmHg 63%
01:00 +12°C° 0.1 mm 4 mps 741 mmHg 60%
02:00 +12°C° 0.1 mm 5 mps 741 mmHg 56%
03:00 +12°C° 0 mm 5 mps 741 mmHg 53%
04:00 +11°C° 0 mm 6 mps 741 mmHg 49%
05:00 +10°C° 0 mm 6 mps 741 mmHg 46%
06:00 +11°C° 0 mm 7 mps 741 mmHg 46%
07:00 +11°C° 0 mm 7 mps 741 mmHg 46%
08:00 +12°C° 0 mm 8 mps 741 mmHg 46%
09:00 +13°C° 0 mm 8 mps 741 mmHg 44%
10:00 +15°C° 0 mm 8 mps 741 mmHg 43%
11:00 +16°C° 0 mm 8 mps 741 mmHg 41%
12:00 +16°C° 0 mm 8 mps 741 mmHg 41%
13:00 +16°C° 0 mm 7 mps 741 mmHg 41%
14:00 +16°C° 0 mm 7 mps 741 mmHg 41%
15:00 +16°C° 0 mm 6 mps 741 mmHg 41%
16:00 +15°C° 0 mm 6 mps 741 mmHg 41%
17:00 +15°C° 0 mm 5 mps 741 mmHg 41%
18:00 +14°C° 0 mm 6 mps 741 mmHg 39%
19:00 +14°C° 0 mm 6 mps 741 mmHg 37%
20:00 +14°C° 0 mm 6 mps 742 mmHg 36%
21:00 +14°C° 0 mm 6 mps 742 mmHg 36%
22:00 +14°C° 0 mm 6 mps 742 mmHg 37%
23:00 +13°C° 0 mm 6 mps 742 mmHg 38%

1 Octubre, Jueves

Tiempo Temperatura Precipitaciones Viento Presión Humedad
00:00 +13°C° 0 mm 6 mps 742 mmHg 39%
01:00 +13°C° 0 mm 6 mps 742 mmHg 40%
02:00 +13°C° 0 mm 6 mps 742 mmHg 42%
03:00 +13°C° 0 mm 6 mps 742 mmHg 43%
04:00 +13°C° 0 mm 6 mps 742 mmHg 44%
05:00 +13°C° 0 mm 6 mps 743 mmHg 45%
06:00 +13°C° 0 mm 6 mps 743 mmHg 46%
07:00 +13°C° 0 mm 6 mps 743 mmHg 47%
08:00 +13°C° 0 mm 6 mps 743 mmHg 48%
09:00 +14°C° 0 mm 7 mps 744 mmHg 47%
10:00 +15°C° 0 mm 7 mps 744 mmHg 46%
11:00 +15°C° 0 mm 7 mps 744 mmHg 45%
12:00 +16°C° 0 mm 7 mps 744 mmHg 43%
13:00 +16°C° 0 mm 7 mps 744 mmHg 42%
14:00 +17°C° 0 mm 7 mps 744 mmHg 40%
15:00 +16°C° 0 mm 6 mps 744 mmHg 42%
16:00 +15°C° 0 mm 5 mps 744 mmHg 44%
17:00 +14°C° 0 mm 5 mps 744 mmHg 46%
18:00 +14°C° 0 mm 5 mps 744 mmHg 46%
19:00 +14°C° 0 mm 5 mps 745 mmHg 45%
20:00 +13°C° 0 mm 5 mps 745 mmHg 45%
21:00 +13°C° 0 mm 5 mps 745 mmHg 46%
22:00 +13°C° 0 mm 5 mps 745 mmHg 48%
23:00 +13°C° 0 mm 5 mps 745 mmHg 50%
Mostrar más